SKW3788 KATL-KMEM

Flight info

Callsign SKW3788
Flight time 1h 3m
Altitude 34000
Route NASSA2 CHOOK WASER VANZE3
Aircraft CRJ9/M-SDFGIRWY/S

Departure

Time 2026-05-04 12:43
Airport Hartsfield Jackson Atlanta International Airport (KATL)

Arrival

Time 2026-05-04 13:46
Airport Memphis International Airport (KMEM)
Time Latitude Longitude Altitude Speed Heading
2026-05-04 12:15 33.63765 -84.43865 1034 ft 0 kts 270°
2026-05-04 12:29 33.63765 -84.43839 1034 ft 4 kts 274°
2026-05-04 12:29 33.63759 -84.43809 1034 ft 4 kts 300°
2026-05-04 12:29 33.63741 -84.43791 1034 ft 4 kts 345°
2026-05-04 12:30 33.63731 -84.43789 1034 ft 1 kts
2026-05-04 12:32 33.63733 -84.43789 1034 ft 0 kts
2026-05-04 12:32 33.63741 -84.43789 1034 ft 0 kts
2026-05-04 12:33 33.63760 -84.43789 1034 ft 6 kts
2026-05-04 12:33 33.63821 -84.43788 1034 ft 12 kts 359°
2026-05-04 12:33 33.63919 -84.43789 1034 ft 16 kts
2026-05-04 12:33 33.64036 -84.43788 1034 ft 18 kts 360°
2026-05-04 12:34 33.64159 -84.43789 1034 ft 18 kts 359°
2026-05-04 12:34 33.64283 -84.43788 1034 ft 18 kts
2026-05-04 12:34 33.64367 -84.43788 1034 ft 11 kts 360°
2026-05-04 12:34 33.64447 -84.43785 1033 ft 12 kts 13°
2026-05-04 12:35 33.64511 -84.43721 1034 ft 14 kts 49°
2026-05-04 12:35 33.64554 -84.43622 1034 ft 13 kts 85°
2026-05-04 12:35 33.64541 -84.43510 1034 ft 14 kts 95°
2026-05-04 12:35 33.64542 -84.43396 1034 ft 14 kts 89°
2026-05-04 12:36 33.64541 -84.43281 1034 ft 14 kts 90°
2026-05-04 12:36 33.64542 -84.43165 1034 ft 14 kts 88°
2026-05-04 12:36 33.64542 -84.43047 1034 ft 14 kts 90°
2026-05-04 12:36 33.64542 -84.42924 1034 ft 15 kts 90°
2026-05-04 12:37 33.64543 -84.42798 1034 ft 15 kts 89°
2026-05-04 12:37 33.64542 -84.42668 1033 ft 16 kts 90°
2026-05-04 12:37 33.64543 -84.42525 1033 ft 18 kts 89°
2026-05-04 12:37 33.64543 -84.42362 1033 ft 21 kts 90°
2026-05-04 12:38 33.64543 -84.42183 1033 ft 22 kts 90°
2026-05-04 12:38 33.64543 -84.42005 1033 ft 21 kts 90°
2026-05-04 12:38 33.64544 -84.41828 1034 ft 21 kts 88°
2026-05-04 12:38 33.64544 -84.41657 1034 ft 21 kts 91°
2026-05-04 12:39 33.64544 -84.41486 1034 ft 20 kts 89°
2026-05-04 12:39 33.64543 -84.41315 1034 ft 20 kts 90°
2026-05-04 12:39 33.64543 -84.41143 1034 ft 20 kts 90°
2026-05-04 12:39 33.64544 -84.40975 1033 ft 21 kts 89°
2026-05-04 12:40 33.64544 -84.40941 1033 ft 0 kts 90°
2026-05-04 12:40 33.64544 -84.40930 1033 ft 3 kts 91°
2026-05-04 12:40 33.64543 -84.40893 1033 ft 6 kts 91°
2026-05-04 12:41 33.64543 -84.40874 1033 ft 2 kts 92°
2026-05-04 12:41 33.64550 -84.40823 1033 ft 10 kts 69°
2026-05-04 12:41 33.64570 -84.40732 1033 ft 14 kts 89°
2026-05-04 12:41 33.64571 -84.40626 1033 ft 9 kts 85°
2026-05-04 12:42 33.64612 -84.40575 1032 ft 10 kts
2026-05-04 12:42 33.64674 -84.40605 1031 ft 10 kts 296°
2026-05-04 12:42 33.64679 -84.40636 1031 ft 0 kts 271°
2026-05-04 12:42 33.64678 -84.40722 1031 ft 39 kts 269°
2026-05-04 12:43 33.64679 -84.41374 1036 ft 115 kts 270°
2026-05-04 12:43 33.64679 -84.42586 1092 ft 167 kts 269°
2026-05-04 12:43 33.64646 -84.43838 1748 ft 172 kts 267°
2026-05-04 12:43 33.64621 -84.45261 2712 ft 173 kts 275°
2026-05-04 12:44 33.64869 -84.46738 3470 ft 187 kts 283°
2026-05-04 12:44 33.65199 -84.48288 4233 ft 199 kts 284°
2026-05-04 12:44 33.65557 -84.49910 4832 ft 225 kts 284°
2026-05-04 12:44 33.65946 -84.51814 5604 ft 245 kts 283°
2026-05-04 12:45 33.66307 -84.53881 6423 ft 261 kts 281°
2026-05-04 12:45 33.66648 -84.56011 7086 ft 274 kts 281°
2026-05-04 12:45 33.67011 -84.58275 7914 ft 279 kts 282°
2026-05-04 12:45 33.67387 -84.60578 8761 ft 284 kts 282°
2026-05-04 12:46 33.67777 -84.62919 9601 ft 289 kts 282°
2026-05-04 12:46 33.68180 -84.65297 10431 ft 292 kts 283°
2026-05-04 12:46 33.68594 -84.67688 11260 ft 293 kts 283°
2026-05-04 12:46 33.69011 -84.70086 12122 ft 295 kts 282°
2026-05-04 12:47 33.69417 -84.72469 12438 ft 315 kts 282°
2026-05-04 12:47 33.69757 -84.74497 12726 ft 329 kts 282°
2026-05-04 12:47 33.70002 -84.76146 13001 ft 338 kts 278°
2026-05-04 12:47 33.70139 -84.79001 13713 ft 344 kts 271°
2026-05-04 12:48 33.70099 -84.81878 14537 ft 345 kts 269°
2026-05-04 12:48 33.70042 -84.84212 15190 ft 346 kts 270°
2026-05-04 12:48 33.69971 -84.87100 15972 ft 346 kts 270°
2026-05-04 12:48 33.69930 -84.89971 16730 ft 347 kts 271°
2026-05-04 12:49 33.69919 -84.92784 17459 ft 348 kts 272°
2026-05-04 12:49 33.69912 -84.95654 18190 ft 349 kts 272°
2026-05-04 12:49 33.69904 -84.98574 18832 ft 351 kts 272°
2026-05-04 12:49 33.69896 -85.01513 19409 ft 353 kts 272°
2026-05-04 12:50 33.69886 -85.04468 19982 ft 355 kts 272°
2026-05-04 12:50 33.69876 -85.07438 20527 ft 357 kts 272°
2026-05-04 12:50 33.69868 -85.09383 20877 ft 359 kts 272°
2026-05-04 12:50 33.69860 -85.12388 21404 ft 361 kts 272°
2026-05-04 12:51 33.69846 -85.15417 21918 ft 364 kts 272°
2026-05-04 12:51 33.69832 -85.18472 22226 ft 372 kts 271°
2026-05-04 12:51 33.69814 -85.21623 22493 ft 379 kts 271°
2026-05-04 12:51 33.69803 -85.24730 22951 ft 382 kts 272°
2026-05-04 12:52 33.69799 -85.27927 23415 ft 384 kts 271°
2026-05-04 12:52 33.69780 -85.31143 23842 ft 386 kts 271°
2026-05-04 12:52 33.69764 -85.34374 24175 ft 388 kts 271°
2026-05-04 12:52 33.69731 -85.37617 24551 ft 389 kts 271°
2026-05-04 12:53 33.69694 -85.40873 24910 ft 391 kts 271°
2026-05-04 12:53 33.69658 -85.44020 25256 ft 392 kts 271°
2026-05-04 12:53 33.69618 -85.47301 25614 ft 393 kts 271°
2026-05-04 12:53 33.69577 -85.50589 25962 ft 395 kts 271°
2026-05-04 12:54 33.69533 -85.53890 26287 ft 396 kts 270°
2026-05-04 12:54 33.69490 -85.57200 26625 ft 397 kts 271°
2026-05-04 12:54 33.69450 -85.60485 26945 ft 399 kts 271°
2026-05-04 12:54 33.69402 -85.63861 27257 ft 400 kts 270°
2026-05-04 12:55 33.69358 -85.67208 27572 ft 402 kts 270°
2026-05-04 12:55 33.69311 -85.70566 27868 ft 403 kts 270°
2026-05-04 12:55 33.69263 -85.73936 28168 ft 404 kts 270°
2026-05-04 12:55 33.69215 -85.77270 28429 ft 406 kts 270°
2026-05-04 12:56 33.69165 -85.80658 28691 ft 407 kts 270°
2026-05-04 12:56 33.69115 -85.84058 28952 ft 408 kts 270°
2026-05-04 12:56 33.69062 -85.87471 29211 ft 409 kts 270°
2026-05-04 12:56 33.69007 -85.90894 29459 ft 411 kts 270°
2026-05-04 12:57 33.68953 -85.94328 29710 ft 412 kts 270°
2026-05-04 12:57 33.68900 -85.97769 29939 ft 413 kts 270°
2026-05-04 12:57 33.68846 -86.01220 30163 ft 414 kts 270°
2026-05-04 12:57 33.68939 -86.04673 30337 ft 414 kts 276°
2026-05-04 12:58 33.69358 -86.08101 30509 ft 416 kts 280°
2026-05-04 12:58 33.69958 -86.11499 30681 ft 417 kts 283°
2026-05-04 12:58 33.70609 -86.14756 30845 ft 418 kts 283°
2026-05-04 12:58 33.71284 -86.18153 31024 ft 419 kts 283°
2026-05-04 12:59 33.71913 -86.21571 31185 ft 420 kts 282°
2026-05-04 12:59 33.72528 -86.24999 31330 ft 420 kts 282°
2026-05-04 12:59 33.73145 -86.28435 31447 ft 421 kts 282°
2026-05-04 12:59 33.73714 -86.31624 31565 ft 422 kts 282°
2026-05-04 13:00 33.74009 -86.33269 31628 ft 422 kts 282°
2026-05-04 13:00 33.74618 -86.36682 31732 ft 423 kts 282°
2026-05-04 13:00 33.75233 -86.40136 31804 ft 425 kts 282°
2026-05-04 13:00 33.75850 -86.43609 31959 ft 425 kts 282°
2026-05-04 13:01 33.76463 -86.47075 32108 ft 424 kts 282°
2026-05-04 13:01 33.77077 -86.50529 32253 ft 424 kts 282°
2026-05-04 13:01 33.77643 -86.53732 32392 ft 423 kts 282°
2026-05-04 13:01 33.78224 -86.57012 32523 ft 423 kts 282°
2026-05-04 13:02 33.78836 -86.60510 32680 ft 422 kts 282°
2026-05-04 13:02 33.79434 -86.63901 32838 ft 421 kts 282°
2026-05-04 13:02 33.80031 -86.67293 32979 ft 421 kts 282°
2026-05-04 13:02 33.80632 -86.70743 33100 ft 420 kts 282°
2026-05-04 13:03 33.81239 -86.74192 33211 ft 420 kts 282°
2026-05-04 13:03 33.81840 -86.77630 33337 ft 420 kts 282°
2026-05-04 13:03 33.82439 -86.81068 33479 ft 420 kts 282°
2026-05-04 13:03 33.83021 -86.84398 33615 ft 419 kts 282°
2026-05-04 13:04 33.83612 -86.87818 33749 ft 418 kts 282°
2026-05-04 13:04 33.84209 -86.91241 33874 ft 418 kts 282°
2026-05-04 13:04 33.84802 -86.94660 34019 ft 418 kts 282°
2026-05-04 13:05 33.85983 -87.01515 34071 ft 420 kts 282°
2026-05-04 13:05 33.87172 -87.08412 34093 ft 422 kts 282°
2026-05-04 13:06 33.88369 -87.15386 33614 ft 431 kts 282°
2026-05-04 13:06 33.88961 -87.18842 33137 ft 413 kts 282°
2026-05-04 13:06 33.89340 -87.21060 32787 ft 404 kts 282°
2026-05-04 13:06 33.89899 -87.24329 32257 ft 398 kts 282°
2026-05-04 13:07 33.90451 -87.27590 31738 ft 398 kts 282°
2026-05-04 13:07 33.91006 -87.30844 31256 ft 399 kts 282°
2026-05-04 13:07 33.91462 -87.33528 30856 ft 400 kts 282°
2026-05-04 13:07 33.91720 -87.35058 30635 ft 400 kts 282°
2026-05-04 13:08 33.92280 -87.38341 30155 ft 401 kts 282°
2026-05-04 13:08 33.92839 -87.41634 29621 ft 402 kts 282°
2026-05-04 13:08 33.93558 -87.44875 29069 ft 400 kts 290°
2026-05-04 13:08 33.94632 -87.47928 28520 ft 393 kts 293°
2026-05-04 13:09 33.95865 -87.50855 27984 ft 392 kts 297°
2026-05-04 13:09 33.97084 -87.53362 27509 ft 391 kts 299°
2026-05-04 13:09 33.98476 -87.56108 26996 ft 390 kts 300°
2026-05-04 13:09 33.99877 -87.58896 26484 ft 388 kts 299°
2026-05-04 13:10 34.01231 -87.61706 25986 ft 387 kts 298°
2026-05-04 13:10 34.02572 -87.64515 25486 ft 386 kts 298°
2026-05-04 13:10 34.03909 -87.67323 25008 ft 386 kts 298°
2026-05-04 13:10 34.05247 -87.70125 24522 ft 385 kts 298°
2026-05-04 13:11 34.06573 -87.72907 24392 ft 375 kts 298°
2026-05-04 13:11 34.07818 -87.75521 24739 ft 354 kts 298°
2026-05-04 13:11 34.09025 -87.78058 24739 ft 346 kts 298°
2026-05-04 13:11 34.10075 -87.80264 24740 ft 350 kts 298°
2026-05-04 13:12 34.10546 -87.81261 24746 ft 352 kts 298°
2026-05-04 13:12 34.11511 -87.83291 24751 ft 360 kts 298°
2026-05-04 13:12 34.12781 -87.85963 24762 ft 374 kts 298°
2026-05-04 13:12 34.14094 -87.88733 24773 ft 385 kts 298°
2026-05-04 13:13 34.15425 -87.91546 24776 ft 386 kts 298°
2026-05-04 13:13 34.16760 -87.94356 24773 ft 386 kts 298°
2026-05-04 13:13 34.18094 -87.97162 24776 ft 385 kts 298°
2026-05-04 13:13 34.19412 -87.99957 24774 ft 378 kts 298°
2026-05-04 13:14 34.20702 -88.02675 24770 ft 368 kts 298°
2026-05-04 13:14 34.21972 -88.05319 24761 ft 359 kts 298°
2026-05-04 13:14 34.23229 -88.07921 24751 ft 360 kts 298°
2026-05-04 13:14 34.24517 -88.10526 24745 ft 363 kts 299°
2026-05-04 13:15 34.25787 -88.13085 24751 ft 365 kts 299°
2026-05-04 13:15 34.27099 -88.15717 24754 ft 367 kts 299°
2026-05-04 13:15 34.28419 -88.18375 24760 ft 369 kts 299°
2026-05-04 13:15 34.29653 -88.20853 24763 ft 371 kts 299°
2026-05-04 13:16 34.30897 -88.23360 24766 ft 373 kts 299°
2026-05-04 13:16 34.32233 -88.26058 24769 ft 375 kts 299°
2026-05-04 13:16 34.33582 -88.28781 24751 ft 380 kts 299°
2026-05-04 13:16 34.34954 -88.31542 24686 ft 386 kts 299°
2026-05-04 13:17 34.36344 -88.34349 24617 ft 391 kts 299°
2026-05-04 13:17 34.37734 -88.37163 24546 ft 387 kts 299°
2026-05-04 13:17 34.39105 -88.39935 24467 ft 381 kts 299°
2026-05-04 13:17 34.40410 -88.42576 24400 ft 375 kts 299°
2026-05-04 13:18 34.41740 -88.45270 24318 ft 371 kts 299°
2026-05-04 13:18 34.43055 -88.47935 24232 ft 367 kts 298°
2026-05-04 13:18 34.44357 -88.50573 24163 ft 363 kts 298°
2026-05-04 13:18 34.45647 -88.53196 24080 ft 363 kts 298°
2026-05-04 13:19 34.46945 -88.55839 24035 ft 367 kts 298°
2026-05-04 13:19 34.48251 -88.58491 23964 ft 365 kts 298°
2026-05-04 13:19 34.49549 -88.61131 23894 ft 365 kts 298°
2026-05-04 13:19 34.50852 -88.63788 23818 ft 367 kts 298°
2026-05-04 13:20 34.52158 -88.66451 23750 ft 367 kts 298°
2026-05-04 13:20 34.53457 -88.69103 23679 ft 365 kts 298°
2026-05-04 13:20 34.54749 -88.71740 23596 ft 363 kts 298°
2026-05-04 13:20 34.56036 -88.74368 23443 ft 363 kts 298°
2026-05-04 13:21 34.57275 -88.76901 23181 ft 366 kts 298°
2026-05-04 13:21 34.58554 -88.79519 22917 ft 369 kts 298°
2026-05-04 13:21 34.59870 -88.82206 22654 ft 372 kts 298°
2026-05-04 13:21 34.61190 -88.84910 22404 ft 372 kts 298°
2026-05-04 13:22 34.62493 -88.87580 22145 ft 363 kts 298°
2026-05-04 13:22 34.63672 -88.90269 21698 ft 360 kts 291°
2026-05-04 13:22 34.64495 -88.93134 21235 ft 359 kts 285°
2026-05-04 13:22 34.64978 -88.95341 20894 ft 359 kts 283°
2026-05-04 13:23 34.65568 -88.98289 20455 ft 358 kts 283°
2026-05-04 13:23 34.66152 -89.01221 20021 ft 357 kts 283°
2026-05-04 13:23 34.66645 -89.03672 19657 ft 356 kts 283°
2026-05-04 13:23 34.67078 -89.05705 19352 ft 356 kts 284°
2026-05-04 13:24 34.67714 -89.08613 18922 ft 356 kts 284°
2026-05-04 13:24 34.68378 -89.11496 18576 ft 353 kts 284°
2026-05-04 13:24 34.69017 -89.14258 18231 ft 351 kts 284°
2026-05-04 13:25 34.70334 -89.19950 17440 ft 348 kts 284°
2026-05-04 13:25 34.70986 -89.22779 17060 ft 347 kts 284°
2026-05-04 13:25 34.71642 -89.25602 16677 ft 347 kts 284°
2026-05-04 13:25 34.72297 -89.28417 16306 ft 346 kts 284°
2026-05-04 13:26 34.72944 -89.31230 15950 ft 345 kts 284°
2026-05-04 13:26 34.73576 -89.34042 15587 ft 344 kts 284°
2026-05-04 13:26 34.74198 -89.36850 15227 ft 344 kts 284°
2026-05-04 13:26 34.74807 -89.39619 15196 ft 334 kts 284°
2026-05-04 13:27 34.75400 -89.42304 15191 ft 324 kts 284°
2026-05-04 13:27 34.75979 -89.44918 15189 ft 317 kts 284°
2026-05-04 13:27 34.76470 -89.47138 15184 ft 311 kts 284°
2026-05-04 13:27 34.76940 -89.49203 15012 ft 311 kts 287°
2026-05-04 13:28 34.77720 -89.51332 14689 ft 317 kts 297°
2026-05-04 13:28 34.78871 -89.53648 14329 ft 323 kts 301°
2026-05-04 13:28 34.80107 -89.55949 13966 ft 327 kts 301°
2026-05-04 13:28 34.81357 -89.58279 13572 ft 330 kts 301°
2026-05-04 13:29 34.82597 -89.60607 13160 ft 325 kts 300°
2026-05-04 13:29 34.83783 -89.62920 12752 ft 319 kts 299°
2026-05-04 13:29 34.84941 -89.65206 12360 ft 315 kts 299°
2026-05-04 13:29 34.86047 -89.67386 11974 ft 304 kts 299°
2026-05-04 13:30 34.87126 -89.69539 11593 ft 293 kts 298°
2026-05-04 13:30 34.88171 -89.71623 11250 ft 284 kts 298°
2026-05-04 13:30 34.89173 -89.73622 10915 ft 276 kts 298°
2026-05-04 13:30 34.90154 -89.75601 10580 ft 270 kts 298°
2026-05-04 13:31 34.91123 -89.77532 10280 ft 264 kts 298°
2026-05-04 13:31 34.92053 -89.79384 10273 ft 251 kts 297°
2026-05-04 13:31 34.92962 -89.81184 10186 ft 251 kts 298°
2026-05-04 13:31 34.93849 -89.82949 9867 ft 253 kts 297°
2026-05-04 13:32 34.94820 -89.84751 9508 ft 258 kts 309°
2026-05-04 13:32 34.96364 -89.85878 9161 ft 266 kts 343°
2026-05-04 13:32 34.98208 -89.86153 8851 ft 269 kts 356°
2026-05-04 13:32 35.00079 -89.86129 8517 ft 269 kts 360°
2026-05-04 13:33 35.01947 -89.86045 8175 ft 268 kts 360°
2026-05-04 13:33 35.03781 -89.85984 7865 ft 260 kts 358°
2026-05-04 13:33 35.05565 -89.85996 7551 ft 254 kts 356°
2026-05-04 13:33 35.07311 -89.86047 7225 ft 249 kts 355°
2026-05-04 13:34 35.09022 -89.86095 6907 ft 243 kts 355°
2026-05-04 13:34 35.10690 -89.86134 6595 ft 237 kts 355°
2026-05-04 13:34 35.12318 -89.86171 6270 ft 231 kts 355°
2026-05-04 13:34 35.13895 -89.86201 5996 ft 220 kts 355°
2026-05-04 13:35 35.15369 -89.86236 5723 ft 213 kts 354°
2026-05-04 13:35 35.18261 -89.86296 5152 ft 203 kts 353°
2026-05-04 13:35 35.19660 -89.86327 4870 ft 199 kts 353°
2026-05-04 13:36 35.20965 -89.86357 4620 ft 199 kts 352°
2026-05-04 13:36 35.22335 -89.86385 4361 ft 195 kts 352°
2026-05-04 13:36 35.23682 -89.86414 4092 ft 192 kts 351°
2026-05-04 13:36 35.24707 -89.86437 3863 ft 190 kts 352°
2026-05-04 13:37 35.25812 -89.86454 3650 ft 187 kts 351°
2026-05-04 13:37 35.27104 -89.86492 3385 ft 184 kts 350°
2026-05-04 13:37 35.28323 -89.86526 3121 ft 180 kts 350°
2026-05-04 13:37 35.29145 -89.86537 2998 ft 175 kts 349°
2026-05-04 13:38 35.30272 -89.87105 2674 ft 147 kts 294°
2026-05-04 13:38 35.30269 -89.88204 2382 ft 134 kts 231°
2026-05-04 13:38 35.29459 -89.88649 2333 ft 126 kts 204°
2026-05-04 13:38 35.28770 -89.89208 2250 ft 117 kts 232°
2026-05-04 13:39 35.28227 -89.89931 2306 ft 116 kts 233°
2026-05-04 13:39 35.27701 -89.90709 2343 ft 122 kts 237°
2026-05-04 13:39 35.27219 -89.91584 2367 ft 127 kts 241°
2026-05-04 13:39 35.26772 -89.92515 2387 ft 123 kts 243°
2026-05-04 13:40 35.26371 -89.93396 2338 ft 114 kts 243°
2026-05-04 13:40 35.25983 -89.94237 2297 ft 116 kts 243°
2026-05-04 13:40 35.25587 -89.95124 2305 ft 121 kts 243°
2026-05-04 13:40 35.25190 -89.96028 2320 ft 124 kts 244°
2026-05-04 13:41 35.24757 -89.96981 2311 ft 129 kts 243°
2026-05-04 13:41 35.24068 -89.97717 2278 ft 145 kts 200°
2026-05-04 13:41 35.23048 -89.97838 2312 ft 152 kts 194°
2026-05-04 13:42 35.20915 -89.97974 2364 ft 141 kts 191°
2026-05-04 13:42 35.19997 -89.97948 2266 ft 124 kts 189°
2026-05-04 13:42 35.19138 -89.97906 2215 ft 124 kts 190°
2026-05-04 13:42 35.18254 -89.97875 2173 ft 129 kts 189°
2026-05-04 13:43 35.17333 -89.97844 2125 ft 135 kts 189°
2026-05-04 13:43 35.16380 -89.97825 2083 ft 139 kts 189°
2026-05-04 13:43 35.15412 -89.97810 2091 ft 140 kts 189°
2026-05-04 13:43 35.14460 -89.97809 1968 ft 143 kts 190°
2026-05-04 13:44 35.13625 -89.97798 1800 ft 137 kts 189°
2026-05-04 13:44 35.12693 -89.97775 1618 ft 132 kts 188°
2026-05-04 13:44 35.11780 -89.97765 1394 ft 133 kts 188°
2026-05-04 13:44 35.11179 -89.97752 1278 ft 131 kts 188°
2026-05-04 13:45 35.10429 -89.97738 1117 ft 135 kts 183°
2026-05-04 13:45 35.09476 -89.97738 984 ft 136 kts 185°
2026-05-04 13:45 35.08554 -89.97728 781 ft 130 kts 183°
2026-05-04 13:45 35.07628 -89.97718 595 ft 134 kts 180°
2026-05-04 13:46 35.06715 -89.97636 543 ft 130 kts 180°
2026-05-04 13:46 35.05810 -89.97612 408 ft 129 kts 181°
2026-05-04 13:46 35.04963 -89.97598 321 ft 107 kts 182°
2026-05-04 13:46 35.04461 -89.97597 324 ft 43 kts 178°
2026-05-04 13:47 35.04224 -89.97591 323 ft 23 kts 179°
2026-05-04 13:47 35.04061 -89.97590 324 ft 24 kts 182°
2026-05-04 13:47 35.03906 -89.97630 323 ft 11 kts 203°
2026-05-04 13:47 35.03840 -89.97674 323 ft 10 kts 215°
2026-05-04 13:48 35.03803 -89.97731 325 ft 7 kts 251°
2026-05-04 13:48 35.03798 -89.97778 327 ft 5 kts 274°
2026-05-04 13:48 35.03799 -89.97817 328 ft 5 kts 265°
2026-05-04 13:48 35.03796 -89.97868 327 ft 8 kts 268°
2026-05-04 13:49 35.03795 -89.97936 326 ft 8 kts 268°
2026-05-04 13:49 35.03804 -89.98010 327 ft 10 kts 306°
2026-05-04 13:49 35.03870 -89.98047 326 ft 11 kts 317°
2026-05-04 13:49 35.03886 -89.98138 329 ft 12 kts 267°
2026-05-04 13:50 35.03884 -89.98211 329 ft 6 kts 269°
2026-05-04 13:50 35.03898 -89.98261 326 ft 6 kts 323°
2026-05-04 13:50 35.03940 -89.98274 328 ft 6 kts 345°
2026-05-04 13:50 35.03953 -89.98280 326 ft 4 kts 336°
2026-05-04 13:51 35.03970 -89.98291 329 ft 5 kts 330°
2026-05-04 13:51 35.04010 -89.98320 329 ft 4 kts 328°
2026-05-04 13:51 35.04021 -89.98328 329 ft 0 kts 328°